Location: Bergern
(48.3333°N, 15.2000°E)
Time: 18:07:14
(UTC+00:00)

Daily predictions for brighter satellites

Satellite Brightness Start Highest point End
(mag) Time Altitude Azimuth Time Altitude Azimuth Time Altitude Azimuth
USA 234 3.4 19:32:02 10° ENE 19:38:26 53° SE 19:44:47 10° SSW
MOS 1 Rocket 4.2 19:36:05 10° SE 19:41:09 44° ENE 19:46:10 10° N
Cosmos 1707 2.6 19:38:10 10° S 19:41:43 62° E 19:45:18 10° NNE
Cosmos 2237 4.4 19:42:20 10° NNW 19:48:04 66° ENE 19:53:45 10° SE
Meteor 2-10 Rocket 4.4 19:44:32 10° N 19:49:50 40° ENE 19:54:55 10° SE
SL-4 R/B 2.3 19:47:00 10° W 19:50:45 68° NNW 19:54:48 10° ENE
Cosmos 1400 Rocket 3.7 19:47:32 10° SSE 19:50:58 30° E 19:54:22 10° NNE
Cosmos 2219 Rocket 3.9 19:47:01 10° N 19:51:26 23° NE 19:55:50 10° E
Cosmos 841 Rocket 3.8 19:50:51 10° NNW 19:56:03 56° ENE 20:01:13 10° SE
SPOT 5 3.0 19:52:08 10° S 19:56:24 64° WSW 20:00:46 10° NNW
Orbus 7S? 4.4 19:52:12 10° WSW 19:57:48 52° NNW 20:00:51 10° NE
ERS-1 Rocket 3.0 19:52:58 10° SSE 19:57:59 83° ENE 20:03:03 10° NNW
Cosmos 1763 Rocket 4.3 19:54:02 10° NNW 19:59:06 49° WSW 20:04:04 10° S
Cosmos 1553 Rocket 4.3 19:54:41 10° NNW 20:00:50 73° W 20:07:02 10° S
ATLAS CENTAUR R/B 2.7 20:00:22 10° SSE 20:02:21 15° ESE 20:04:29 10° ENE
S3M 4.1 19:57:10 10° N 20:03:34 69° E 20:09:50 10° SSE
SJ 16-02 3.2 20:02:53 10° ESE 20:04:56 13° E 20:07:02 10° ENE
Spot 2 Rocket 3.6 20:00:21 10° SSE 20:05:23 74° ENE 20:10:28 10° N
Meteor 1-15 Rocket 4.2 20:05:03 10° N 20:10:38 74° ENE 20:16:12 10° SSE
SL-27 R/B 3.9 20:10:27 12° ESE 20:11:17 14° E 20:12:48 10° ENE
Cosmos 1655 Rocket 4.4 20:07:11 10° SSE 20:13:17 50° E 20:19:26 10° NNE
Okean-O 4.3 20:09:47 10° SSW 20:13:40 30° W 20:17:36 10° NNW
Cosmos 1441 Rocket 3.5 20:10:13 10° NNW 20:13:47 59° W 20:17:21 10° S
Meteor 1-23 Rocket 4.5 20:08:27 10° S 20:13:55 53° E 20:19:28 10° NNE
Cosmos 2360 Rocket 2.8 20:10:11 10° NNW 20:15:42 49° NE 20:20:47 12° SE
SL-08 ROCKET BODY 4.5 20:11:01 10° S 20:17:06 68° E 20:23:08 10° NNE
ATLAS 2AS CENTAUR R/B 3.1 20:10:47 10° NW 20:17:36 58° NE 20:24:07 10° ESE
Cosmos 2266 Rocket 4.1 20:11:47 10° S 20:18:04 75° E 20:24:29 10° NNE
Cosmos 1733 Rocket 3.7 20:14:48 10° N 20:19:00 42° ENE 20:22:29 14° SE
Cosmos 1300 3.0 20:16:56 10° N 20:20:23 45° ENE 20:23:03 15° SSE
USA 245 3.8 20:18:52 10° S 20:22:10 55° W 20:26:22 10° NNW
Cosmos 2333 Rocket 2.7 20:18:29 10° NNW 20:24:08 53° NE 20:29:07 13° SE
SL-16 R/B 2.3 20:19:08 10° NNW 20:24:50 80° WSW 20:29:51 13° SSE
In-Cosmos 22 4.2 20:19:22 10° S 20:25:02 87° W 20:30:35 10° N
Cosmos 1908 4.2 20:22:46 10° NNW 20:26:09 40° W 20:29:32 10° SSW
Cosmos 1470 4.4 20:23:04 10° NNW 20:26:16 28° W 20:29:29 10° SSW
Cosmos 2082 Rocket 3.7 20:24:26 10° WSW 20:29:48 40° NW 20:35:10 10° NNE
Ariane Rocket 3.2 20:25:00 10° S 20:30:00 74° WSW 20:35:07 10° NNW
Atlas Centaur 2 4.2 20:24:38 10° SW 20:30:23 21° S 20:34:35 14° SSE
Cosmos 2228 Rocket 3.3 20:28:12 12° S 20:32:19 56° E 20:36:49 10° NNE
SL-14 R/B 3.3 20:29:37 13° S 20:32:50 56° E 20:36:34 10° NNE
MetOp-A 4.3 20:29:06 15° SSE 20:33:25 61° ENE 20:38:37 10° N
Meteor 1-12 Rocket 4.4 20:30:04 10° NNW 20:36:08 90° SW 20:41:31 13° S
RESURS DK-1 2.3 20:32:18 10° NNW 20:36:24 85° WSW 20:39:23 18° SSE
Okean 1-7 4.3 20:36:48 16° SE 20:39:09 25° E 20:42:41 10° NNE
Tiangong 0.2 20:38:22 10° SW 20:39:23 11° SSW 20:39:45 11° SSW
Cosmos 1869 Rocket 4.5 20:36:47 10° NNW 20:41:02 46° W 20:45:17 10° SSW
Cosmos 1850 Rocket 4.0 20:36:38 10° S 20:41:48 63° ESE 20:46:58 10° NNE
Cosmos 1346 Rocket 2.7 20:39:56 10° N 20:43:49 74° ENE 20:46:26 19° SSE
Terra 2.7 20:39:53 10° S 20:44:22 44° W 20:48:54 10° NNW
SPOT 3 Rocket 3.9 20:40:43 12° S 20:45:29 60° WSW 20:50:37 10° NNW
USA 281 3.7 20:42:02 13° SE 20:47:43 51° NE 20:54:02 10° NNW
Timation 1 Rocket 4.3 20:44:31 10° SSW 20:50:29 85° ESE 20:56:29 10° NNE
Cosmos 1242 Rocket 4.3 20:52:09 11° E 20:52:11 11° E 20:52:55 10° ENE
EXPRESS MD2 2.0 20:51:41 10° W 20:54:12 76° NNW 20:56:22 10° ENE
Cosmos 2333 4.4 20:49:41 10° NNW 20:55:28 69° ENE 20:59:44 19° SE
Cosmos 2315 Rocket 4.2 20:50:19 10° NNW 20:56:41 75° W 21:02:15 14° S
Cosmos 1758 3.7 20:54:27 10° NNW 20:58:19 58° W 21:01:09 17° S
Cosmos 1741 Rocket 4.0 20:55:42 10° SSW 21:00:58 85° ESE 21:06:19 10° NNE
CZ-2C R/B 4.4 20:59:14 10° NNE 21:03:19 36° E 21:05:29 22° SSE
Cosmos 968 Rocket 3.4 20:59:28 12° S 21:04:06 68° ESE 21:09:17 10° NNE
Cosmos 2322 Rocket 2.5 21:03:03 10° NW 21:08:38 58° WSW 21:12:36 19° S
Cosmos 1814 Rocket 4.0 21:03:31 10° NNW 21:08:50 81° ENE 21:12:20 22° SSE
Cosmos 1356 Rocket 3.7 21:06:07 12° SSW 21:09:55 66° WNW 21:14:08 10° N
SeaSat 1 4.3 21:08:16 10° SSW 21:11:52 20° WSW 21:15:31 10° WNW
Cosmos 1703 Rocket 4.4 21:11:39 23° SE 21:13:45 37° E 21:17:53 10° NNE
Cosmos 1862 Rocket 3.7 21:11:25 15° SSW 21:14:57 74° W 21:19:24 10° N
Meteor 1-21 4.4 21:13:03 11° SSW 21:18:34 76° WNW 21:24:25 10° N
Okean 2 3.4 21:19:14 27° SSE 21:21:14 62° E 21:25:13 10° NNE
USA 234 3.7 21:15:05 10° NE 21:21:34 65° NNW 21:28:00 10° WSW
BREEZE-M DEB (TANK) 4.1 21:04:58 10° WSW 21:23:59 86° NNW 21:28:27 10° E
PSLV R/B 4.4 21:21:13 10° NNE 21:25:01 41° E 21:26:30 29° SSE
Cosmos 1455 2.0 21:24:45 10° N 21:28:15 69° E 21:29:35 35° SSE
COSMOS 2428 3.4 21:24:10 10° NNW 21:29:40 48° NE 21:33:47 18° ESE
SL-4 R/B 2.7 21:25:59 10° WNW 21:29:51 53° N 21:33:59 10° E
COSMOS 2455 4.2 21:29:10 19° SE 21:30:57 22° ESE 21:35:23 10° ENE
Cosmos 2219 Rocket 2.2 21:30:23 10° NNW 21:36:05 84° WSW 21:39:27 26° SSE
ATLAS CENTAUR R/B 1.7 21:36:08 10° SW 21:39:34 54° NW 21:43:08 10° NNE
ARIANE 5 R/B 2.5 21:39:26 30° S 21:41:33 83° WSW 21:45:55 10° NNW
Cosmos 1315 Rocket 2.8 21:39:54 26° SSW 21:42:02 79° WNW 21:46:03 10° N
SJ 16-02 1.5 21:39:28 17° SSW 21:42:42 70° WNW 21:47:02 10° NNE
Meteor 1-4 Rocket 3.0 21:41:42 25° SW 21:43:02 44° WNW 21:45:57 10° N
Kosmos-1783 4.5 21:39:33 10° NW 21:43:18 89° SW 21:48:18 20° SE
SL-27 R/B 3.9 21:41:51 12° WSW 21:43:59 26° WNW 21:46:25 10° N
Okean 3 4.4 21:41:42 15° SW 21:44:49 43° WNW 21:48:49 10° N
Cosmos 1953 2.4 21:42:08 10° NNW 21:45:56 64° W 21:47:31 32° SSW
Cosmos 1241 Rocket 4.4 21:42:42 10° SSW 21:48:47 82° SE 21:55:04 10° NE
Cosmos 1745 Rocket 4.2 21:45:23 25° SSE 21:49:06 61° E 21:55:23 10° NNE
Nadezhda 1 Rocket 4.0 21:51:34 10° N 21:57:56 86° E 22:01:33 27° S
Cosmos 2360 Rocket 3.4 21:54:33 10° NW 21:59:28 31° WSW 22:02:32 19° SSW
H-2A R/B 2.5 21:59:14 35° SSE 22:01:03 90° N 22:05:21 10° NNW
GP-B 3.3 21:57:54 10° N 22:02:17 66° W 22:04:27 29° SSW
Cosmos 839 Rocket 4.4 21:56:53 10° NW 22:03:29 51° WSW 22:06:45 26° S
Cosmos 1386 Rocket 4.5 22:01:58 24° S 22:05:57 89° W 22:12:13 10° N
SL-16 R/B 4.4 22:05:26 10° WNW 22:07:58 13° W 22:10:29 10° WSW
Cosmos 2333 Rocket 3.5 22:03:14 10° NW 22:08:07 29° WSW 22:11:07 19° SSW
ATLAS 2AS CENTAUR R/B 3.4 22:02:06 10° NW 22:08:15 38° WSW 22:11:32 24° SSW
Cosmos 1908 Rocket 4.3 22:05:01 10° NNW 22:09:09 44° W 22:11:05 27° SSW
Cosmos 1782 Rocket 3.5 22:07:28 10° NNW 22:11:49 79° W 22:13:29 37° S
Cosmos 1825 4.4 22:13:44 11° E 22:14:17 11° E 22:15:13 10° ENE
BREEZE-M DEB (TANK) 3.8 22:11:24 10° W 22:14:35 78° N 22:24:21 10° E
Okean 1-7 4.3 22:13:22 16° SW 22:16:17 35° WNW 22:20:16 10° N
Cosmos 1408 1.8 22:22:39 76° S 22:22:51 86° ESE 22:25:51 10° N
Cosmos 1242 Rocket 3.3 22:23:20 28° W 22:23:54 30° WNW 22:26:25 10° N
BlueWalker 3 2.1 22:24:27 46° SE 22:24:27 46° SE 22:28:04 10° ENE
SL-16 R/B 4.3 22:20:16 10° N 22:24:39 22° NE 22:29:02 10° E
BREEZE-M DEB (TANK) 3.3 22:21:29 10° WNW 22:24:42 33° N 22:26:38 10° ENE
Cosmos 405 Rocket 3.6 22:25:09 10° N 22:28:42 38° ENE 22:29:56 29° ESE
Spot 2 4.5 22:28:05 34° S 22:30:22 78° WSW 22:35:28 10° NNW
Cosmos 1570 Rocket 4.5 22:27:02 10° NNW 22:32:12 50° WSW 22:34:28 30° SSW
USA 281 4.0 22:28:55 23° SSW 22:32:21 39° WSW 22:38:28 10° NW
Cosmos 1300 Rocket 3.8 22:28:10 10° NNW 22:32:24 58° W 22:33:55 36° SSW
Meteor 1-24 Rocket 4.0 22:30:01 30° SSE 22:32:46 59° E 22:38:21 10° NNE
Cosmos 2237 Rocket 2.6 22:27:53 10° NNW 22:33:31 58° ENE 22:37:15 21° SE
Cosmos 2322 4.0 22:28:11 10° NW 22:33:42 53° WSW 22:36:10 31° S
H-2A R/B 2.9 22:30:21 10° NNE 22:34:16 34° E 22:35:22 29° SE
ALOS 2 2.6 22:32:43 38° S 22:34:19 70° WSW 22:38:43 10° NNW
NOSS 8 (E) 4.4 22:35:35 49° SSW 22:36:24 72° SE 22:39:33 10° NE
Okean 2 Rocket 4.0 22:33:14 10° N 22:37:27 39° ENE 22:39:28 25° SE
Cosmos 371 Rocket 3.3 22:38:27 37° S 22:40:15 65° ESE 22:45:02 10° NNE
Cosmos 2227 Rocket 3.5 22:38:36 21° SE 22:40:29 25° ESE 22:45:03 10° NE
CZ-3 Stage 3 4.5 22:21:05 10° W 22:41:43 27° SW 22:45:18 23° SSW
CZ-4C R/B 2.1 22:42:24 37° S 22:43:50 52° ESE 22:49:12 10° NE
BREEZE-M DEB (TANK) 3.0 22:45:04 54° SSW 22:45:29 62° SSE 22:50:40 10° ENE
Cosmos 1703 3.0 22:44:41 51° S 22:45:33 89° W 22:49:15 10° N
Cosmos 1980 3.8 22:40:44 10° NNW 22:46:25 76° ENE 22:49:45 26° SE
Cosmos 1709 Rocket 4.1 22:45:06 27° SSW 22:48:50 74° W 22:55:13 10° N
Cosmos 1674 Rocket 4.2 22:49:36 32° SE 22:51:00 42° E 22:55:07 10° NNE
Cosmos 1378 Rocket 3.9 22:51:43 36° SSE 22:53:06 52° E 22:57:22 10° NNE
Cosmos 2221 Rocket 4.3 22:52:51 31° SE 22:54:22 42° E 22:58:35 10° NNE
NOSS 0 Rocket 4.0 22:49:27 10° NW 22:55:38 65° WSW 22:58:44 30° S
Cosmos 2242 Rocket 4.2 22:57:30 29° SW 22:59:33 50° WNW 23:04:01 10° N
Sich 1 Rocket 3.7 22:55:14 10° N 22:59:38 64° E 23:01:19 35° SSE
Cosmos 2297 Rocket 2.2 22:57:54 33° S 23:00:27 65° ESE 23:06:04 10° NNE
Meteor 2-5 Rocket 3.8 22:57:47 30° SSW 23:00:51 86° W 23:06:45 10° N
GEOS 3 Rocket 3.8 22:59:11 10° NE 23:04:14 54° SE 23:06:13 34° S
Cosmos 1892 2.8 23:06:43 45° SE 23:07:18 52° E 23:10:45 10° NNE
Cosmos 773 Rocket 4.1 23:03:22 10° NNW 23:08:27 62° WSW 23:10:31 35° S
SL-4 R/B 1.9 23:04:44 10° WNW 23:08:51 80° SSW 23:12:04 17° ESE
COSMOS 2428 3.7 23:08:44 10° NW 23:13:44 32° WSW 23:15:45 25° SW
CENTAUR R/B 3.3 23:12:45 26° SSE 23:14:53 34° ESE 23:20:50 10° NE
Cosmos 2098 Rocket 4.2 23:08:31 10° NNW 23:15:03 65° W 23:18:28 29° SSW
COSMOS 2455 2.9 23:12:16 23° SW 23:16:14 77° NW 23:22:19 10° NNE
Cosmos 2154 Rocket 4.4 23:13:33 26° SSE 23:16:56 54° E 23:23:02 10° NNE
ATLAS CENTAUR R/B 4.2 23:16:32 10° NW 23:18:03 12° NNW 23:19:34 10° N
Cosmos 1503 Rocket 4.0 23:15:43 31° SSW 23:18:23 82° WNW 23:23:43 10° NNE
Cosmos 2219 Rocket 4.2 23:16:17 10° WNW 23:19:08 14° W 23:21:08 12° WSW
Cosmos 1777 Rocket 4.0 23:18:39 32° SSW 23:21:08 89° SE 23:26:28 10° NNE
SJ 16-02 4.2 23:20:45 10° WNW 23:21:54 11° NW 23:23:04 10° NNW
PSLV R/B 4.4 23:27:13 10° N 23:31:14 42° WNW 23:33:07 26° WSW
Cosmos 332 Rocket 3.8 23:31:18 35° S 23:33:19 74° ESE 23:38:14 10° NNE
Cosmos 304 Rocket 4.3 23:31:07 25° SW 23:33:38 52° WNW 23:38:18 10° NNE
Cosmos 2263 Rocket 3.5 23:33:49 19° SE 23:36:23 27° ESE 23:40:59 10° NE
Cosmos 1174 4.0 23:33:19 10° NW 23:38:20 70° WSW 23:39:54 37° SSE
Okean 1 Rocket 3.0 23:37:07 10° NNW 23:41:28 75° W 23:43:06 37° S
Resurs 1-4 Rocket 4.3 23:40:06 10° NE 23:43:22 16° E 23:46:36 10° SE
Cosmos 1825 2.3 23:47:12 41° WSW 23:47:59 51° WNW 23:51:21 10° N
Helios 1A Rocket 3.3 23:46:37 25° SE 23:48:32 53° ENE 23:52:15 10° N
